User: anonymous   Login
Location: Unspecified
(0.0000°N, 0.0000°E)
Time: 04:23:23
(UTC+02:00)
Language:

ATLAS 2AS CENTAUR R/B - Orbit

View from above orbital plane
View from above orbital plane
View from above satellite
View from above satellite

Ground track
Ground track

The orbit data is extracted from the following two-line orbital elements,

1 28096U 03054B   16204.95786064 0.00000030  00000-0  43929-4 0    02
2 28096  63.6684 169.9691 0269000 272.9705  87.0295 13.40813510    07
Epoch (UTC): 22 July 2016 22:59:19
Eccentricity: 0.0269000
inclination: 63.6684°
perigee height: 905 km
apogee height: 1307 km
right ascension of ascending node: 169.9691°
argument of perigee: 272.9705°
revolutions per day: 13.40813510
mean anomaly at epoch: 87.0295°
orbit number at epoch: 0

The dashed part of the orbit path shows where the satellite is in the earth's shadow,  

DLR